GFSFLT1_con_lsi_057.txt.gz
Lid_Strength_Index
5 5 5 4 4 4 3 3 2 2 2 2 2 1 1 1 1 1 1 2 3 3 2 1 0 0 0 0 1 1 1 1 1
6 5 5 5 4 3 3 3 3 3 2 2 2 2 1 1 1 1 1 2 2 2 2 1 0 0 0 0 0 2 1 1 1
6 5 5 4 4 3 3 3 2 2 2 2 2 1 1 1 1 1 1 1 2 2 2 1 0 0 0 0 0 1 2 2 1
6 6 5 4 4 3 3 2 2 2 2 2 2 2 1 1 1 1 1 2 2 1 1 1 1 1 1 1 1 1 2 2 1
5 5 5 4 4 3 3 3 3 3 2 2 2 2 1 1 1 1 1 1 2 2 1 1 1 0 1 1 1 1 1 1 1
5 5 5 4 4 4 3 3 3 3 2 2 2 2 2 2 2 1 1 1 1 1 2 1 1 1 1 1 1 1 1 1 1
6 5 5 4 4 4 3 3 3 3 2 2 2 2 2 2 2 2 1 1 1 1 1 2 2 1 1 1 1 1 1 1 1
7 5 5 5 4 4 3 3 3 3 2 2 2 2 2 2 2 1 1 1 1 1 1 1 1 1 1 1 1 1 1 1 1
6 5 5 5 4 4 4 3 3 3 3 2 2 2 2 2 2 2 2 1 1 1 1 1 1 1 1 1 1 3 3 1 1
6 5 5 5 4 4 3 3 3 3 3 2 2 2 2 2 2 2 2 1 1 2 2 1 1 1 1 1 1 4 4 4 1
7 6 5 4 4 3 3 3 3 3 2 2 2 3 2 2 2 2 2 2 2 2 1 2 2 1 1 1 1 5 6 4 1
6 6 5 5 4 4 3 3 3 3 3 2 3 3 3 2 2 2 2 2 2 2 2 2 2 1 1 1 1 7 7 6 2
7 5 4 4 4 4 4 4 3 3 3 3 3 3 2 2 2 2 2 2 2 2 2 2 1 2 1 3 1 6 8 7 2
9 9 7 4 4 4 4 4 3 3 3 3 3 2 2 2 2 2 2 2 2 2 2 2 2 2 1 1 2 2 9 10 2
12 11 9 8 5 4 3 3 3 4 4 3 2 2 2 2 2 2 2 2 2 2 2 2 2 2 2 2 1 7 9 10 9
11 11 11 8 8 8 6 4 3 4 3 2 2 3 3 2 2 2 2 2 2 2 2 3 3 3 3 2 1 1 10 11 11
10 11 11 11 7 7 7 7 5 3 2 2 2 3 3 3 3 3 2 2 2 2 3 3 3 3 3 3 2 2 2 6 7
10 10 11 10 10 7 7 6 7 5 3 3 3 3 3 3 3 4 3 4 5 2 2 3 3 3 2 3 3 2 5 5 3
10 10 9 8 8 6 7 7 6 5 3 2 3 3 3 3 3 3 4 6 9 16 17 17 17 16 8 3 8 11 14 14 14
9 9 8 8 7 6 5 5 7 7 4 2 3 4 3 3 4 4 6 7 7 7 12 17 19 19 17 17 12 16 17 17 17

GFSFLT1_con_lsi_060.txt.gz
Lid_Strength_Index
6 5 5 5 4 4 3 3 2 2 2 2 1 1 1 1 1 1 1 1 1 1 1 1 -0 -0 -0 -0 -1 0 0 -0 0
6 6 5 5 4 3 3 3 2 2 2 2 2 1 1 1 1 1 1 1 1 0 0 0 -0 -0 -0 -0 -0 -0 0 0 0
6 5 5 4 4 3 3 3 2 2 2 2 2 1 1 1 1 1 1 1 1 1 1 0 0 0 -0 -0 -0 -0 -0 1 0
6 5 5 4 4 3 3 2 2 2 2 2 2 1 1 1 1 1 1 1 1 1 1 1 0 0 0 0 0 -0 0 0 0
6 5 5 4 4 3 3 3 3 2 2 2 2 1 1 1 1 1 1 1 1 1 1 1 0 0 0 0 0 0 1 1 0
6 5 5 4 4 4 3 3 3 3 2 2 2 1 2 1 1 1 1 1 1 0 0 0 0 0 1 1 0 0 0 0 1
8 5 5 5 4 4 3 3 3 3 2 2 2 2 2 2 2 1 1 1 1 1 1 1 1 0 0 0 0 0 0 0 1
9 8 5 5 4 4 4 3 3 3 2 2 2 2 2 2 1 1 1 1 1 1 1 1 1 1 0 0 0 0 1 1 1
7 8 7 5 4 4 4 3 3 3 3 2 2 2 2 2 2 1 1 1 1 1 1 1 1 1 1 1 1 2 3 1 1
7 7 6 6 4 4 3 3 3 3 3 2 2 2 2 2 2 2 1 1 1 1 1 1 1 1 1 1 1 4 4 3 0
7 6 5 4 4 3 3 3 2 2 2 2 2 2 2 2 2 2 2 2 2 1 1 1 1 1 1 1 1 4 5 4 0
7 5 5 4 3 3 3 3 2 2 3 3 3 3 2 2 2 2 2 2 2 2 1 1 1 1 1 1 1 6 6 5 1
9 7 4 4 3 3 3 3 2 3 3 3 3 3 2 2 2 2 2 2 2 1 1 1 1 1 1 2 1 6 8 6 1
10 8 7 4 4 4 3 3 2 3 3 3 2 2 2 2 1 2 1 2 1 1 2 2 2 2 1 1 1 1 9 9 2
11 11 9 7 4 4 3 3 3 3 3 2 2 2 2 2 2 1 2 2 2 1 2 2 2 2 2 1 1 6 9 10 9
11 10 10 9 8 6 4 3 3 4 3 2 2 2 2 2 2 2 1 2 2 2 2 2 3 3 3 2 1 1 9 10 10
12 11 10 10 9 8 8 7 4 3 2 2 2 3 2 2 2 2 2 2 2 2 2 3 3 3 3 2 2 2 1 4 6
12 11 11 10 10 11 10 9 8 7 4 2 3 3 2 2 2 2 2 2 2 2 1 3 2 2 2 3 3 2 4 4 2
11 11 10 9 9 9 9 9 9 8 6 4 2 3 3 3 2 2 2 3 5 15 15 16 16 15 9 1 8 10 13 14 14
9 9 10 10 9 9 9 8 8 6 5 5 4 3 2 2 3 2 3 4 5 5 10 17 18 17 17 17 11 14 16 16 17

GFSFLT1_con_lsi_063.txt.gz
Lid_Strength_Index
5 5 4 4 3 3 3 2 2 2 2 2 1 1 1 0 0 1 0 0 0 0 0 0 -1 -1 -1 -1 -1 -1 -1 -0 -0
5 5 4 4 3 3 3 2 2 2 2 1 1 1 1 0 0 0 0 -0 -0 0 -1 -0 -1 -1 -1 -1 -1 -1 -1 -0 -0
5 5 4 4 3 3 2 2 2 1 1 1 1 1 1 1 0 0 0 -0 0 -0 -0 -1 -1 -1 -1 -1 -1 -1 -1 -0 -1
5 4 4 4 3 3 2 2 2 2 2 2 1 1 1 1 1 0 0 0 -0 -0 -0 -1 -0 -1 -0 -0 -0 -1 -0 -0 -0
4 4 4 3 3 3 3 2 2 2 2 2 1 1 1 1 0 0 0 0 -0 -0 0 -0 -0 -0 -0 -0 -0 -1 -0 0 -0
4 4 4 3 3 3 3 3 2 2 2 2 1 1 1 1 1 1 1 1 0 -0 -0 -0 -0 -0 -0 -0 -0 -0 -0 -0 0
6 4 4 4 4 3 3 3 2 2 2 1 1 1 1 1 1 1 1 0 0 0 0 0 0 -0 -0 -0 -0 -0 -0 -0 -0
5 5 4 4 4 3 3 3 3 2 2 1 1 1 2 1 1 1 0 0 0 0 0 -0 -0 0 -0 -0 -0 0 -0 -0 -0
6 5 4 4 4 3 3 3 3 2 2 2 1 2 2 1 1 1 1 1 1 0 0 0 0 0 0 0 0 2 3 0 0
6 6 5 4 3 3 3 3 2 3 2 1 2 2 2 1 1 1 1 1 1 1 1 0 0 1 0 1 0 4 4 3 0
6 5 5 4 4 3 3 2 2 2 2 2 2 2 2 1 1 1 1 1 1 1 1 1 1 1 0 0 0 5 5 4 -0
5 4 4 4 3 2 2 2 2 2 2 2 2 2 2 2 1 2 1 2 1 1 1 1 1 1 1 1 0 6 6 4 0
7 5 3 4 3 2 2 2 2 2 3 2 3 2 2 1 1 1 2 1 1 1 1 1 1 1 1 2 1 5 7 5 1
6 5 3 3 2 2 2 2 2 3 2 3 2 1 1 1 1 1 1 1 1 1 1 1 1 1 1 0 1 1 8 8 1
8 7 4 3 3 3 2 2 2 3 3 2 1 1 1 1 1 1 1 1 1 1 1 2 2 2 1 1 0 5 7 9 8
11 10 9 6 4 4 3 2 1 3 2 1 1 2 2 2 1 1 1 1 2 2 2 2 2 2 2 2 1 1 9 10 10
11 11 10 10 8 8 6 4 3 2 2 1 1 2 2 1 2 2 1 1 1 2 2 2 2 2 2 2 2 1 1 1 4
10 10 9 10 10 9 9 7 6 6 4 1 2 2 2 2 2 2 2 1 1 2 1 2 2 2 2 2 2 2 4 3 1
9 9 8 10 10 10 9 8 7 7 6 5 2 2 2 2 2 2 2 2 2 13 13 14 15 14 7 1 7 11 12 14 13
8 8 8 8 9 9 9 8 8 7 6 6 5 4 2 3 3 2 3 2 2 3 7 15 16 15 15 15 11 15 15 15 17

GFSFLT1_con_lsi_069.txt.gz
Lid_Strength_Index
4 4 3 3 3 2 2 2 2 1 1 1 1 1 0 0 -0 0 0 -0 0 0 0 -0 -1 -1 -1 -1 -2 -1 -1 -0 -0
5 4 3 3 3 2 2 2 2 1 1 1 1 1 0 0 0 0 0 -0 -0 -0 -1 -0 -1 -1 -1 -1 -1 -1 -1 -0 -0
4 4 3 3 3 2 2 2 1 1 1 1 1 1 1 1 0 0 -0 -0 -0 -0 -1 -1 -1 -1 -1 -1 -1 -1 -1 -1 -1
4 3 3 3 3 2 2 1 1 1 1 1 1 1 1 1 0 0 0 0 -0 -0 -1 -1 -1 -1 -1 -1 -0 -1 -0 -0 -1
3 3 3 3 2 2 2 2 2 1 1 1 1 1 1 1 0 0 0 0 -0 -0 -0 -0 -1 -0 -0 -0 -0 -1 -0 0 -0
3 3 2 2 2 2 2 2 2 2 1 1 1 1 1 1 1 1 1 0 0 -0 -0 -0 -0 -0 -0 -0 -0 -0 -0 -0 -0
3 3 2 3 3 2 2 2 2 2 1 1 1 1 1 1 1 1 1 0 0 0 -0 0 -0 -0 -0 -0 -0 -0 -0 -0 -0
3 3 3 2 2 2 2 2 2 2 1 1 1 1 1 1 1 0 0 0 0 0 0 0 -0 -0 -0 -0 -0 -0 -0 -0 -0
4 4 3 3 2 2 2 2 2 2 2 1 1 1 1 1 1 1 1 1 1 0 0 0 0 0 0 0 0 2 3 0 0
4 4 3 3 3 2 2 2 2 2 2 1 1 1 1 1 1 1 1 1 1 1 1 0 1 0 0 0 0 4 4 2 -0
4 4 3 3 3 2 2 1 1 1 1 1 1 2 1 1 1 1 1 1 1 1 1 1 1 1 0 0 0 5 6 4 -0
3 3 3 3 2 2 1 1 1 1 2 2 2 2 2 1 1 1 1 2 1 1 1 1 1 1 1 1 1 6 7 5 0
3 3 2 3 2 2 2 1 1 1 2 2 2 2 2 1 1 1 2 1 1 1 1 1 1 1 0 2 1 6 8 5 0
3 3 2 2 2 3 2 1 1 2 2 2 2 1 1 1 1 1 1 1 1 1 1 1 1 1 1 0 1 1 9 9 0
3 3 3 2 3 3 2 1 2 2 2 1 1 1 1 1 1 1 1 1 1 1 1 1 1 1 1 1 0 5 9 11 8
3 3 2 2 3 3 2 2 1 2 2 1 1 1 2 1 1 1 1 1 2 2 1 2 2 2 2 2 1 1 8 10 10
5 5 4 2 2 5 6 4 3 2 1 1 1 2 2 1 2 2 1 1 1 2 2 2 2 2 2 2 1 1 0 1 5
6 6 6 4 4 6 8 6 6 5 5 1 2 2 2 2 2 2 2 1 1 1 1 2 2 1 1 2 2 1 3 2 1
6 6 4 5 6 6 7 7 7 6 6 5 2 3 2 2 2 2 2 2 2 12 9 12 12 12 5 1 9 13 12 13 13
6 6 6 6 6 6 7 7 7 7 7 6 5 3 2 2 2 2 2 2 2 3 6 12 13 13 12 12 13 14 13 15 16

GFSFLT1_con_lsi_072.txt.gz
Lid_Strength_Index
4 4 4 4 3 3 3 2 2 2 2 2 1 1 1 1 0 1 1 0 0 1 1 0 -0 -0 -0 -1 -1 -1 -1 -0 -0
6 5 4 4 3 3 3 2 2 2 2 2 1 1 1 1 1 1 1 0 -0 0 -0 -0 0 -0 -0 -0 -1 -1 -0 0 0
6 6 5 4 3 3 2 2 2 1 1 2 1 1 1 1 1 1 0 0 0 0 -0 -0 0 0 -0 -0 -0 -0 -0 0 -0
6 5 5 4 3 3 2 2 2 2 2 2 2 1 1 1 1 1 0 0 0 0 0 -0 -0 -0 -0 0 0 -0 0 0 0
4 5 4 4 4 3 2 2 2 2 2 2 1 1 1 1 1 1 1 1 0 0 0 -0 -0 -0 0 0 0 0 0 1 0
3 3 5 5 5 4 3 2 2 2 2 2 1 1 1 1 1 1 1 1 0 0 0 0 0 0 0 0 0 0 0 0 0
3 3 4 5 5 5 3 3 2 2 2 1 1 1 2 2 1 1 1 1 1 1 0 0 0 0 0 0 0 0 0 0 0
4 4 3 3 3 3 4 3 2 2 2 2 1 2 2 2 1 1 1 1 1 0 0 0 0 0 0 0 0 0 0 0 1
5 5 4 4 3 3 3 3 3 2 2 2 1 2 2 1 1 1 1 1 1 1 1 1 1 1 1 1 1 3 4 1 1
5 4 4 4 3 3 3 2 2 2 2 1 2 2 2 2 1 2 1 1 1 1 1 1 1 1 1 1 1 5 5 3 0
4 4 4 3 3 3 2 2 2 2 2 2 2 2 2 2 2 2 1 1 1 1 1 1 1 1 1 1 1 5 6 4 0
4 3 3 3 2 2 2 2 2 2 2 2 2 2 2 2 2 2 2 2 2 1 1 1 1 1 1 1 1 7 7 6 1
3 3 3 3 2 2 2 2 2 2 2 2 3 2 2 1 1 2 2 2 2 1 1 1 1 1 1 2 1 6 8 6 1
3 3 3 2 2 3 2 2 2 3 2 3 2 1 1 1 1 1 1 1 1 1 1 1 1 1 1 1 1 1 9 10 1
3 3 3 2 3 3 2 2 3 3 3 1 1 1 2 2 1 1 1 2 1 1 2 2 2 2 2 1 1 5 9 11 8
3 3 3 2 3 3 2 2 3 3 2 2 2 2 2 2 1 1 1 2 2 2 2 2 2 2 2 2 1 1 8 11 11
3 3 3 3 3 3 3 3 4 4 4 4 2 2 2 2 2 2 2 1 2 2 2 2 2 3 3 2 2 1 1 4 7
3 3 3 2 3 4 4 6 6 5 5 5 2 2 2 2 2 2 2 2 2 2 1 2 2 2 2 2 2 2 3 3 1
3 3 3 4 4 4 5 7 7 6 6 6 4 2 2 2 2 2 2 2 2 13 9 12 11 8 4 4 10 13 14 13 10
3 4 5 5 5 5 6 7 8 8 7 6 6 5 5 2 3 2 2 2 3 3 6 15 15 13 11 8 11 15 16 15 14

GFSFLT1_con_lsi_075.txt.gz
Lid_Strength_Index
5 5 5 4 4 3 3 3 2 2 2 2 2 1 1 1 1 1 1 1 2 1 1 1 0 0 0 0 0 0 0 0 1
6 5 5 4 3 3 3 3 2 2 2 2 2 1 1 1 1 1 1 1 1 1 2 1 0 0 0 0 0 0 0 1 1
6 5 5 5 4 3 3 2 2 2 2 2 2 1 1 1 1 1 1 1 1 1 1 1 0 0 0 0 0 0 0 1 1
6 6 5 5 4 4 3 2 2 2 2 2 2 1 1 1 1 1 1 1 1 1 1 0 1 0 0 0 0 0 1 1 1
5 5 5 5 4 4 3 3 2 2 2 2 2 1 1 1 1 1 1 2 1 1 1 1 1 0 1 1 1 0 1 1 1
6 5 5 5 4 4 4 3 2 2 2 2 2 1 2 2 1 1 1 1 2 1 1 1 1 1 1 1 1 1 1 1 1
7 6 5 5 5 4 4 4 3 2 2 2 2 2 2 2 2 1 1 1 1 1 1 1 1 1 1 1 1 1 1 1 1
7 6 5 5 5 4 4 4 5 4 2 2 2 2 2 2 1 1 1 1 1 1 1 1 1 1 1 1 1 0 1 1 1
7 7 5 5 4 5 4 4 4 5 5 2 2 2 2 2 2 1 1 1 1 2 1 1 1 1 1 1 1 3 3 1 1
8 8 7 5 4 4 4 4 4 3 5 2 2 2 2 2 2 2 2 1 1 1 2 1 1 1 1 1 1 5 5 4 1
9 5 5 4 4 4 3 3 2 2 2 2 2 2 2 2 2 2 2 2 2 2 1 2 1 1 1 1 1 5 6 5 2
6 5 4 4 3 3 3 3 3 3 3 2 3 3 2 2 2 2 2 2 2 2 2 2 1 1 1 1 1 6 7 7 4
7 7 7 3 3 3 3 4 2 3 3 3 3 2 2 2 2 2 2 2 2 1 1 2 1 1 1 2 1 6 8 7 2
4 4 3 3 4 3 5 5 4 3 3 3 2 2 2 2 2 2 2 2 1 1 2 2 2 2 1 1 1 1 8 10 2
4 4 4 3 4 3 3 4 4 4 5 5 4 2 2 2 2 2 2 2 2 2 2 2 2 2 2 1 1 5 8 10 9
4 4 4 4 4 4 3 3 3 5 6 7 6 5 2 2 2 2 2 2 2 2 2 2 3 3 3 2 1 1 8 10 11
4 5 4 4 5 5 4 4 3 5 6 6 7 5 3 2 2 2 2 2 2 2 2 3 3 3 3 2 2 2 1 4 7
4 4 4 4 5 5 4 4 4 5 6 7 7 7 3 2 2 2 2 2 2 2 2 2 2 2 2 3 3 2 4 3 3
4 4 4 4 5 6 5 5 6 5 6 8 8 9 4 3 3 2 2 2 3 13 9 11 11 10 4 2 9 9 10 12 11
4 4 4 3 4 6 6 6 6 7 7 7 8 9 10 6 7 3 3 3 3 4 7 14 16 15 11 12 8 15 14 14 14

GFSFLT1_con_lsi_078.txt.gz
Lid_Strength_Index
6 6 5 4 4 3 4 3 3 2 2 2 1 1 1 1 1 2 1 1 1 1 1 1 1 1 0 0 0 0 0 1 1
7 5 5 4 4 3 3 3 3 3 2 2 2 1 1 1 1 2 1 1 2 1 1 1 1 1 1 1 0 1 1 1 1
6 5 5 4 4 3 3 2 3 2 2 2 2 1 1 1 1 1 2 1 1 2 1 1 1 0 1 1 0 0 1 1 1
6 5 5 5 4 3 3 2 2 2 2 2 2 1 1 1 1 1 2 1 1 1 2 1 1 0 0 0 0 1 1 2 1
5 5 5 4 4 3 3 3 2 2 2 2 2 1 1 1 1 1 1 1 1 0 2 0 0 0 0 1 0 1 1 1 1
6 5 5 5 4 4 4 3 3 2 2 2 1 1 1 1 1 1 1 1 1 2 1 1 1 0 1 1 1 1 1 1 1
6 6 6 5 5 5 4 4 4 3 2 2 2 1 2 2 2 1 1 1 1 2 1 1 1 1 1 1 1 1 1 1 1
7 6 6 5 5 5 4 4 4 3 2 2 2 2 2 2 1 1 1 1 1 1 2 1 1 1 1 0 1 0 1 1 1
7 6 6 5 4 4 4 4 3 3 3 2 2 2 2 2 1 1 1 2 2 1 1 1 1 1 1 1 1 3 3 1 1
6 6 5 5 4 4 4 3 3 3 3 4 2 2 2 2 2 2 2 1 2 2 2 1 1 1 1 1 1 5 5 3 1
6 5 5 5 4 4 3 3 2 2 2 2 2 2 2 2 2 2 1 2 2 1 1 2 1 1 1 1 1 5 6 5 2
5 5 6 4 3 3 3 3 2 2 2 2 2 3 2 2 2 2 2 2 2 1 2 2 2 1 1 1 1 6 6 5 2
5 4 4 4 3 3 4 4 3 3 3 3 3 3 2 2 2 2 2 2 2 1 1 2 1 2 1 2 1 6 7 6 1
6 4 4 4 3 4 4 4 4 4 4 5 4 2 3 2 1 2 2 2 1 1 2 2 2 2 1 1 1 1 8 9 1
6 5 4 4 5 5 5 5 5 5 5 4 5 4 4 3 2 2 1 2 2 2 2 2 2 2 2 1 1 5 8 9 8
4 5 4 5 5 6 5 5 5 6 6 5 4 6 6 4 2 2 2 2 2 2 2 2 3 3 3 2 1 1 8 10 10
4 4 4 5 6 7 7 6 6 6 5 5 6 6 6 6 2 2 2 2 2 2 2 3 3 3 3 2 2 2 1 4 6
4 4 4 3 6 7 7 8 7 7 6 6 6 6 6 6 2 2 2 2 2 2 2 2 2 2 2 3 3 2 4 3 2
4 5 4 4 6 6 8 8 8 7 7 6 7 7 7 9 7 2 2 2 2 12 9 10 11 9 4 2 6 9 11 12 12
3 6 5 5 5 5 7 7 8 8 7 7 7 7 7 8 9 6 3 3 3 4 7 13 14 13 12 12 7 13 14 13 14

GFSFLT1_con_lsi_084.txt.gz
Lid_Strength_Index
6 5 5 4 4 4 3 3 2 2 2 2 1 1 1 1 1 1 1 1 1 1 1 0 -0 -0 -0 -0 -0 -0 -1 -0 -0
6 6 5 5 4 3 4 3 2 2 2 2 1 1 1 1 1 1 1 1 0 0 0 0 -0 -0 -0 -0 0 -1 -0 -0 0
7 6 5 5 4 3 3 3 2 2 2 2 1 1 1 1 1 1 1 0 1 0 0 -0 -0 -0 -0 -0 -0 -0 -0 0 -0
7 6 5 5 4 3 3 3 2 2 2 2 2 1 1 1 1 1 1 1 0 0 0 -0 0 0 0 0 0 0 0 0 -0
6 5 5 4 4 3 3 4 3 3 2 2 2 1 1 1 1 1 1 1 1 0 0 -0 1 1 0 0 0 0 0 0 0
6 6 5 5 4 4 3 3 4 3 2 2 2 1 1 1 1 1 1 1 1 0 0 0 0 -0 1 0 0 0 0 0 0
6 7 5 5 5 4 4 3 3 3 3 2 2 2 2 2 2 1 1 1 1 1 0 0 0 0 0 0 0 0 0 0 0
8 7 6 5 5 4 4 3 3 2 2 2 1 2 2 2 2 2 1 1 1 0 1 0 0 0 0 0 0 0 0 0 0
9 6 5 5 4 4 4 4 3 3 2 2 2 2 2 1 2 1 2 2 1 1 1 1 0 1 1 1 1 3 3 1 1
9 8 5 5 4 5 6 4 3 3 2 2 2 2 2 2 1 2 1 2 2 1 1 1 1 1 1 1 0 4 4 3 0
9 8 8 5 4 5 5 5 4 3 2 2 2 2 2 2 1 2 1 1 2 2 1 1 1 1 1 1 1 3 4 4 1
9 9 8 8 5 3 4 5 5 4 4 4 4 4 3 2 1 2 2 2 2 2 2 2 2 1 1 1 1 5 5 4 1
9 8 8 9 7 4 3 5 4 5 5 6 6 5 5 5 4 3 2 1 2 1 2 2 2 2 2 3 1 5 6 4 1
9 8 8 8 8 4 5 5 5 5 6 6 6 5 5 5 4 4 3 1 1 1 1 1 2 2 2 2 3 2 7 7 1
8 9 9 8 8 7 3 5 6 6 7 6 6 5 5 4 4 4 3 2 1 1 2 2 2 2 2 1 1 6 8 9 7
8 8 9 9 9 7 3 4 5 8 6 6 6 6 6 5 4 3 4 4 3 2 2 2 3 3 3 2 1 1 8 10 9
7 7 7 7 8 8 5 4 5 6 6 6 6 7 7 6 5 4 4 4 3 2 2 3 3 3 3 2 2 1 1 4 6
5 6 5 6 7 7 5 4 6 6 7 7 8 7 7 6 6 5 4 3 3 3 1 2 2 2 2 3 3 2 4 4 2
5 5 4 5 6 5 4 4 6 6 6 7 7 8 8 8 7 7 5 3 2 8 10 12 11 10 4 1 6 9 12 12 12
3 3 3 5 5 3 4 5 6 7 7 8 8 8 9 9 8 5 5 3 3 3 4 12 14 14 14 14 7 13 14 14 14

GFSFLT1_con_lsi_087.txt.gz
Lid_Strength_Index
5 4 4 4 3 3 2 2 2 1 1 1 1 1 0 0 -0 0 0 0 0 0 0 -0 -1 -1 -1 -1 -1 -1 -2 -1 -0
6 5 4 4 3 2 2 2 2 1 1 1 1 0 0 0 0 0 0 -0 -0 -0 -1 -0 -1 -1 -1 -1 -1 -1 -1 -0 -0
6 5 4 4 3 2 2 2 1 1 1 1 1 1 0 0 0 -0 -0 -0 -0 -0 -1 -1 -1 -1 -1 -1 -1 -1 -1 -0 -1
6 5 5 4 3 2 2 1 1 1 1 1 1 1 0 0 0 0 -0 0 -0 -0 -1 -1 -0 -1 -0 -0 -0 -1 -0 -0 -0
5 5 4 4 3 3 2 2 2 2 1 1 1 1 1 1 0 0 0 0 -0 -1 -0 -1 -1 -1 -0 -0 -0 -1 -0 -0 -0
5 5 5 4 4 3 3 2 2 2 1 1 1 1 1 1 1 0 0 0 -0 -0 -0 -0 -1 -1 -0 -0 -0 -0 -0 -0 -0
5 5 5 5 4 4 3 2 2 1 1 1 1 1 1 1 1 1 0 0 -0 -0 -0 -0 -0 -1 -0 -0 -0 -0 -0 -0 -0
6 6 5 5 5 5 5 3 2 2 1 1 1 1 1 1 0 0 0 0 0 -0 -0 -0 -0 -0 -0 -0 -0 -0 -0 -0 -0
7 9 8 6 4 5 6 6 4 2 2 1 1 1 1 1 1 0 1 0 0 0 0 -0 -0 0 0 0 0 2 3 0 0
7 9 10 9 7 4 4 6 5 3 2 1 1 1 1 1 1 1 1 0 0 1 1 0 0 0 -0 0 0 4 4 2 -0
7 7 9 9 8 7 3 4 6 5 2 1 1 1 1 1 1 1 1 1 1 1 0 1 1 1 0 0 0 4 4 2 -0
7 6 7 8 8 8 6 3 3 5 5 4 3 2 1 2 1 1 1 1 1 1 1 1 1 0 0 0 0 5 5 3 0
7 6 6 6 7 7 7 5 3 4 4 5 5 4 4 4 3 3 1 1 1 1 1 1 1 1 0 2 0 4 6 3 0
6 7 7 6 6 7 7 7 3 4 4 5 4 4 3 3 3 3 3 2 1 1 1 1 1 1 1 0 0 0 7 7 0
6 6 6 6 6 6 5 5 5 4 5 4 4 4 3 1 2 1 1 1 1 1 1 2 2 2 1 1 0 4 6 9 7
6 6 5 5 6 5 5 5 4 3 3 4 5 6 5 3 1 1 1 1 1 1 2 2 2 2 2 2 1 0 8 9 9
6 6 5 5 5 5 4 4 3 2 2 3 4 6 6 5 3 3 1 1 1 2 2 2 2 3 3 2 2 1 1 2 4
6 6 5 4 5 4 3 3 4 1 0 2 4 5 6 6 5 4 4 3 2 1 1 2 2 2 2 2 2 2 3 3 1
6 5 5 5 4 3 2 1 2 1 1 2 4 4 5 7 7 5 4 3 3 7 8 9 11 13 7 1 5 10 12 11 12
6 5 5 5 4 2 1 2 2 0 1 3 3 4 5 6 7 6 4 3 4 4 4 9 10 12 14 13 8 14 14 14 13